Location: Belloy
(55.7522°N, 118.2333°W)
Time: 14:09:09
(UTC+00:00)

ISS - Visible Passes

Search period start: 01 December 2021 00:00
Search period end: 11 December 2021 00:00
Orbit: 417 x 423 km, 51.6° (Epoch: 01 December)

Date Brightness Start Highest point End Pass type
(mag) Time Alt. Az. Time Alt. Az. Time Alt. Az.
01 Dec -2.7 00:38:04 10° WSW 00:41:18 40° S 00:44:31 10° ESE visible
01 Dec -2.3 02:14:39 10° W 02:17:34 32° SSW 02:17:34 32° SSW visible
02 Dec -2.5 01:27:29 10° W 01:30:40 37° S 01:32:21 22° SE visible
02 Dec -0.6 03:04:35 10° WSW 03:05:21 13° WSW 03:05:21 13° WSW visible
03 Dec -2.6 00:40:21 10° WSW 00:43:34 40° S 00:46:47 10° ESE visible
03 Dec -1.7 02:17:12 10° WSW 02:19:54 22° SSW 02:20:12 22° SSW visible
04 Dec -1.9 01:29:55 10° W 01:32:51 27° SSW 01:35:10 14° SSE visible
05 Dec -2.0 00:42:41 10° W 00:45:46 32° SSW 00:48:51 10° SE visible
05 Dec -0.9 02:20:15 10° WSW 02:21:54 13° SW 02:23:16 11° S visible
06 Dec -1.0 01:32:35 10° WSW 01:34:54 17° SSW 01:37:12 10° SSE visible
07 Dec -1.2 00:45:09 10° WSW 00:47:51 22° SSW 00:50:32 10° SSE visible
09 Dec -0.5 00:48:10 10° WSW 00:49:45 13° SW 00:51:22 10° S visible
